[[{"header":{"parameterUnit":"m.s-1","parameterCategory":1,"la1":30.2991,"la2":30.254,"lo1":-89.0895,"lo2":-89.0444,"dy":0.0017,"dx":0.0017,"nx":28,"ny":28,"refTime":"2025-05-19T09:00:00:Z","depth":0,"parameterNumber":2,"parameterNumberName":"U-component_of_WINDS"},"data":[0,0,0,0,0,0,0,0,0,0,0,0,0,0,0,0,0,0,0,0,0,0,0,0,0,0,0,0,0,0,0,0,0,0,0,0,0,0,0,0,0,0,0,0,0,0,0,0,0,0,0,0,0,0,0,0,0,0,-0.4078,-0.4079,0,-0.4121,-0.4122,-0.4122,-0.4144,-0.4144,-0.4144,-0.4144,-0.419,-0.4191,-0.4193,0,0,0,0,0,0,0,0,0,0,0,0,0,-0.4016,-0.4017,-0.4078,-0.4079,-0.4079,-0.4121,-0.4122,-0.4123,-0.4144,-0.4144,-0.4144,-0.4144,-0.419,-0.4191,-0.4193,0,0,0,0,0,0,0,0,0,0,0,0,0,-0.405,-0.4018,-0.4078,-0.4095,-0.4097,-0.4121,-0.4122,-0.4123,-0.4144,-0.4144,-0.4144,-0.4144,-0.4189,-0.4191,-0.4193,-0.4204,0,0,-0.4199,-0.4199,0,0,0,0,0,0,0,0,-0.4048,-0.4052,-0.4092,-0.4094,-0.4096,-0.4127,-0.4117,-0.415,-0.4144,-0.4126,-0.4144,-0.4144,-0.4169,-0.4173,-0.4181,-0.4206,-0.4208,-0.4199,-0.42,-0.4201,-0.4201,0,0,0,0,0,0,0,-0.4045,-0.405,-0.4095,-0.4092,-0.4095,-0.4101,-0.4106,-0.4123,-0.4147,-0.4128,-0.413,-0.4134,-0.4171,-0.4179,-0.4182,-0.4209,-0.4199,-0.42,-0.4201,-0.4202,-0.4247,-0.4247,0,0,0,0,0,0,-0.404,-0.4048,-0.4094,-0.4097,-0.4071,-0.4102,-0.4108,-0.4117,-0.4147,-0.4152,-0.4134,-0.4135,-0.4176,-0.418,-0.4184,-0.42,-0.4201,-0.4202,-0.4203,-0.4247,-0.4247,-0.4247,0,0,0,0,0,0,-0.4039,-0.4044,-0.4092,-0.4073,-0.4079,-0.4103,-0.4114,-0.4118,-0.4127,-0.4152,-0.4157,-0.4139,-0.4176,-0.4181,-0.4199,-0.4202,-0.4203,-0.4205,-0.4247,-0.4247,-0.4247,-0.4231,0,0,0,0,0,0,-0.4037,-0.4043,-0.4047,-0.4073,-0.408,-0.4106,-0.4114,-0.4119,-0.413,-0.4131,-0.4157,-0.4162,-0.4177,-0.4196,-0.4201,-0.4204,-0.4206,-0.4247,-0.4247,-0.4247,-0.4231,-0.423,-0.423,0,0,0,0,0,-0.4035,-0.4041,-0.4047,-0.4053,-0.4086,-0.4106,-0.411,-0.4127,-0.413,-0.4134,-0.4151,-0.4161,-0.4201,-0.4198,-0.4203,-0.4207,-0.4246,-0.4247,-0.4247,-0.4232,-0.4231,-0.423,0,0,0,0,0,0,-0.4016,-0.4045,-0.4052,-0.4067,-0.4084,-0.4109,-0.4116,-0.4125,-0.4142,-0.4143,-0.4164,-0.4169,-0.4185,-0.4198,-0.4195,-0.422,-0.4225,-0.4226,-0.4211,-0.421,-0.421,-0.4206,-0.4208,0,0,0,0,0,-0.4013,-0.4026,-0.4051,-0.4062,-0.407,-0.4091,-0.4101,-0.4112,-0.4131,-0.4138,-0.4156,-0.4174,-0.4191,-0.4201,-0.4218,-0.4233,-0.424,-0.4239,-0.4238,-0.4237,-0.4238,-0.4248,-0.4248,-0.4248,-0.4248,-0.4248,0,0,-0.4008,-0.4026,-0.4033,-0.4059,-0.4073,-0.4087,-0.4097,-0.4111,-0.4122,-0.4141,-0.4158,-0.4172,-0.4194,-0.421,-0.4219,-0.4222,-0.424,-0.4237,-0.4237,-0.4238,-0.4248,-0.4248,-0.4248,-0.4248,-0.4248,-0.4248,0,0,-0.4006,-0.402,-0.4031,-0.4046,-0.4067,-0.4081,-0.4084,-0.4109,-0.4118,-0.4136,-0.4151,-0.4164,-0.4192,-0.4208,-0.4219,-0.4224,-0.4234,-0.4229,-0.4225,-0.4234,-0.4234,-0.4235,-0.4237,-0.4238,-0.423,-0.423,-0.423,0,-0.3997,-0.4018,-0.4036,-0.4049,-0.4061,-0.4078,-0.4089,-0.4103,-0.4129,-0.4137,-0.414,-0.4176,-0.4192,-0.4213,-0.4214,-0.4222,-0.4227,-0.4226,-0.4233,-0.4233,-0.4234,-0.4236,-0.4237,-0.4229,-0.4229,-0.4229,-0.4229,0,-0.4007,-0.4021,-0.4028,-0.4052,-0.4065,-0.4077,-0.4097,-0.4108,-0.4118,-0.4133,-0.4152,-0.4171,-0.4193,-0.4198,-0.4209,-0.4221,-0.4222,-0.4229,-0.4234,-0.4233,-0.4235,-0.4237,-0.4228,-0.4228,-0.4228,-0.4229,0,0,-0.3994,-0.4028,-0.403,-0.4042,-0.4068,-0.408,-0.4094,-0.4114,-0.4123,-0.4141,-0.4154,-0.4177,-0.4184,-0.4197,-0.4209,-0.4218,-0.4221,-0.4223,-0.4224,-0.4223,-0.4237,-0.4232,-0.4233,-0.4228,-0.4228,-0.4229,-0.4235,0,-0.3996,-0.4021,-0.4037,-0.4056,-0.407,-0.4087,-0.4099,-0.4117,-0.4131,-0.4146,-0.4161,-0.4178,-0.4185,-0.4193,-0.4202,-0.4219,-0.4224,-0.4219,-0.4241,-0.4242,-0.4235,-0.4234,-0.4229,-0.4234,-0.4236,-0.4237,-0.4237,0,-0.4002,-0.4019,-0.4039,-0.4063,-0.407,-0.4081,-0.4101,-0.4115,-0.4136,-0.4145,-0.416,-0.4173,-0.4189,-0.4193,-0.4216,-0.4212,-0.4222,-0.4232,-0.4233,-0.4236,-0.4239,-0.4238,-0.4236,-0.4237,-0.4238,-0.4238,-0.4238,0,-0.3991,-0.4019,-0.4035,-0.4044,-0.4073,-0.408,-0.4093,-0.4114,-0.4125,-0.4144,-0.4152,-0.4172,-0.4183,-0.4199,-0.4217,-0.4218,-0.4239,-0.4244,-0.4248,-0.4248,-0.4252,-0.4251,-0.4253,-0.4258,-0.4258,-0.4258,-0.4258,0,-0.3991,-0.4003,-0.403,-0.404,-0.4054,-0.4073,-0.4087,-0.4101,-0.4119,-0.4133,-0.4149,-0.4161,-0.4185,-0.4201,-0.4215,-0.4233,-0.4238,-0.4247,-0.4251,-0.4245,-0.4244,-0.4253,-0.4253,-0.4258,-0.4258,-0.4258,-0.4258,0,-0.3982,-0.4,-0.4018,-0.4044,-0.4051,-0.4061,-0.4084,-0.4094,-0.4109,-0.4126,-0.4131,-0.4155,-0.4175,-0.4195,-0.4221,-0.4231,-0.4248,-0.4253,-0.4241,-0.4243,-0.4247,-0.4246,-0.4254,-0.4256,-0.4259,-0.4259,-0.4259,0,-0.3981,-0.399,-0.4017,-0.4027,-0.4039,-0.4055,-0.4067,-0.4087,-0.4099,-0.4124,-0.4132,-0.4152,-0.417,-0.42,-0.422,-0.4241,-0.4247,-0.4248,-0.425,-0.4245,-0.4248,-0.4247,-0.4248,-0.4247,-0.4247,-0.4247,-0.4247,0,-0.3978,-0.3987,-0.4003,-0.4023,-0.4036,-0.4053,-0.407,-0.4078,-0.4101,-0.4114,-0.4134,-0.4147,-0.4174,-0.4195,-0.4218,-0.4232,-0.4244,-0.4246,-0.4248,-0.4243,-0.4236,-0.4241,-0.4239,-0.4246,-0.4246,-0.4246,-0.4246,-0.4246,-0.3973,-0.3983,-0.4003,-0.4021,-0.4036,-0.4052,-0.4064,-0.408,-0.4097,-0.412,-0.4131,-0.4151,-0.4173,-0.4205,-0.4219,-0.4235,-0.4239,-0.4242,-0.4242,-0.4243,-0.4242,-0.4233,-0.424,-0.424,-0.424,-0.424,-0.424,0,-0.3972,-0.3986,-0.4002,-0.4026,-0.404,-0.4049,-0.4069,-0.4081,-0.4098,-0.4117,-0.4134,-0.4157,-0.4177,-0.4199,-0.4221,-0.423,-0.4236,-0.4235,-0.4235,-0.4238,-0.4238,-0.4234,-0.423,-0.423,-0.423,-0.423,-0.423,-0.423,-0.3973,-0.3989,-0.4001,-0.4025,-0.404,-0.4059,-0.407,-0.4085,-0.41,-0.4125,-0.4142,-0.4156,-0.4177,-0.42,-0.4219,-0.4226,-0.4233,-0.4231,-0.4238,-0.4237,-0.4238,-0.4239,-0.4235,-0.4232,-0.4232,-0.4238,-0.4238,-0.4238]},{"header":{"parameterUnit":"m.s-1","parameterCategory":1,"la1":30.2991,"la2":30.254,"lo1":-89.0895,"lo2":-89.0444,"dy":0.0017,"dx":0.0017,"nx":28,"ny":28,"refTime":"2025-05-19T09:00:00:Z","depth":0,"parameterNumber":3,"parameterNumberName":"V-component_of_WINDS"},"data":[0,0,0,0,0,0,0,0,0,0,0,0,0,0,0,0,0,0,0,0,0,0,0,0,0,0,0,0,0,0,0,0,0,0,0,0,0,0,0,0,0,0,0,0,0,0,0,0,0,0,0,0,0,0,0,0,0,0,5.5342,5.5342,0,5.5358,5.5358,5.5358,5.5273,5.5271,5.5269,5.5266,5.5281,5.5284,5.5286,0,0,0,0,0,0,0,0,0,0,0,0,0,5.5235,5.5237,5.5342,5.5342,5.5342,5.5358,5.5358,5.5358,5.5274,5.5271,5.5268,5.5265,5.528,5.5283,5.5287,0,0,0,0,0,0,0,0,0,0,0,0,0,5.5269,5.5238,5.5342,5.5302,5.5298,5.5358,5.5358,5.5358,5.5274,5.5271,5.5267,5.5264,5.5279,5.5283,5.5287,5.5385,0,0,5.5299,5.5301,0,0,0,0,0,0,0,0,5.5267,5.5273,5.5307,5.5305,5.5301,5.531,5.5326,5.5367,5.5275,5.5284,5.5266,5.5262,5.5294,5.5296,5.5307,5.5386,5.5386,5.53,5.5302,5.5304,5.5305,0,0,0,0,0,0,0,5.5265,5.5272,5.5348,5.5308,5.5304,5.5282,5.5283,5.5333,5.5309,5.5283,5.5276,5.528,5.5291,5.5304,5.5307,5.5386,5.53,5.5303,5.5306,5.5307,5.5545,5.5548,0,0,0,0,0,0,5.5268,5.5271,5.5347,5.5348,5.5275,5.5287,5.5288,5.5311,5.5308,5.5304,5.5283,5.5276,5.5298,5.5302,5.5307,5.5421,5.5304,5.5307,5.531,5.5541,5.5546,5.555,0,0,0,0,0,0,5.5266,5.5276,5.5347,5.5308,5.5315,5.5293,5.5319,5.5313,5.5325,5.5308,5.5303,5.53,5.5296,5.5301,5.5366,5.542,5.5309,5.5313,5.5536,5.5542,5.5548,5.565,0,0,0,0,0,0,5.5264,5.5276,5.5313,5.5309,5.5318,5.5406,5.5322,5.5316,5.5333,5.5323,5.5323,5.532,5.5293,5.5361,5.537,5.5424,5.5316,5.5531,5.5539,5.5546,5.5641,5.5658,5.5673,0,0,0,0,0,5.526,5.5341,5.5316,5.5325,5.5364,5.541,5.5414,5.5383,5.5337,5.5374,5.5363,5.532,5.5413,5.5368,5.5378,5.5433,5.5528,5.5537,5.5545,5.5634,5.5655,5.5672,0,0,0,0,0,0,5.5351,5.534,5.5312,5.5394,5.5404,5.5395,5.5441,5.5406,5.5428,5.5419,5.5378,5.5379,5.545,5.5448,5.5398,5.5527,5.5462,5.5473,5.5526,5.5546,5.5561,5.556,5.5319,0,0,0,0,0,5.5381,5.542,5.5407,5.5481,5.5488,5.5464,5.5483,5.5458,5.5466,5.5469,5.5463,5.5472,5.5503,5.5524,5.5552,5.5641,5.5639,5.5684,5.5699,5.5712,5.5722,5.5768,5.5788,5.5579,5.5579,5.5579,0,0,5.5443,5.5442,5.5468,5.55,5.5504,5.5544,5.5468,5.5514,5.5543,5.5476,5.5536,5.5532,5.5539,5.5616,5.565,5.5617,5.578,5.5724,5.5734,5.5737,5.578,5.5799,5.5817,5.5585,5.5584,5.5583,0,0,5.5576,5.5579,5.5641,5.5647,5.5655,5.5639,5.5654,5.5651,5.5645,5.5706,5.5656,5.569,5.5745,5.5752,5.5762,5.5898,5.5858,5.5908,5.599,5.6035,5.6052,5.6066,5.6114,5.6132,5.5918,5.5919,5.5919,0,5.5652,5.5711,5.5677,5.5726,5.5741,5.5683,5.5744,5.5751,5.5768,5.5779,5.5742,5.5809,5.581,5.5887,5.592,5.5931,5.5946,5.5908,5.6053,5.6067,5.608,5.6125,5.6143,5.5924,5.5924,5.5923,5.5923,0,5.5803,5.5845,5.5894,5.5912,5.5932,5.5987,5.596,5.5985,5.5958,5.5946,5.6007,5.6006,5.6032,5.6049,5.6023,5.6123,5.6102,5.606,5.5993,5.6106,5.6148,5.6165,5.5933,5.5931,5.5929,5.5928,0,0,5.5995,5.5993,5.6011,5.6019,5.6023,5.6054,5.6106,5.6132,5.6154,5.6167,5.6209,5.6257,5.6217,5.623,5.6204,5.6244,5.6351,5.6196,5.6196,5.6225,5.646,5.6492,5.6513,5.6325,5.6328,5.633,5.6459,0,5.6125,5.6215,5.6185,5.6275,5.6313,5.6258,5.6303,5.631,5.63,5.633,5.6317,5.6352,5.6297,5.6304,5.6341,5.633,5.6397,5.632,5.6363,5.6365,5.6363,5.6534,5.6569,5.669,5.6475,5.6478,5.648,0,5.6289,5.6309,5.6404,5.6401,5.6416,5.6457,5.6478,5.6508,5.6514,5.6504,5.6518,5.6483,5.6533,5.6467,5.6535,5.6484,5.6499,5.6496,5.65,5.6503,5.6429,5.6541,5.6728,5.6747,5.6506,5.6503,5.6502,0,5.6418,5.6469,5.6532,5.654,5.6539,5.6569,5.657,5.6573,5.659,5.6608,5.6619,5.6643,5.6656,5.6675,5.6648,5.6603,5.672,5.6652,5.6712,5.6713,5.6739,5.6738,5.6931,5.675,5.675,5.675,5.6749,0,5.6567,5.6627,5.659,5.6629,5.6694,5.6659,5.6724,5.6719,5.6722,5.6758,5.6712,5.6746,5.6708,5.674,5.6719,5.6778,5.6784,5.6777,5.677,5.6781,5.6782,5.679,5.6781,5.6754,5.6753,5.6752,5.6752,0,5.6723,5.6701,5.6766,5.6759,5.6759,5.6807,5.6801,5.6836,5.6822,5.6869,5.6877,5.6855,5.6889,5.6864,5.6898,5.6884,5.6962,5.6944,5.696,5.6955,5.7017,5.7011,5.7222,5.7248,5.705,5.7052,5.7054,0,5.6819,5.6864,5.6862,5.6883,5.6887,5.6921,5.6939,5.6906,5.6926,5.6936,5.697,5.7,5.7023,5.708,5.7066,5.7092,5.7074,5.7146,5.7077,5.7086,5.7074,5.7072,5.7076,5.716,5.7162,5.7164,5.7165,0,5.6991,5.6978,5.7006,5.703,5.7052,5.7069,5.7082,5.7102,5.7068,5.7093,5.7128,5.7145,5.7179,5.721,5.723,5.723,5.7193,5.7187,5.7202,5.7214,5.7221,5.7218,5.6998,5.7183,5.7181,5.718,5.7179,5.7178,5.712,5.7157,5.7162,5.7194,5.72,5.7213,5.7246,5.7236,5.7265,5.729,5.7268,5.731,5.7314,5.7338,5.7343,5.7374,5.7344,5.7366,5.7372,5.7378,5.7387,5.7216,5.7378,5.7377,5.7376,5.7376,5.7376,0,5.729,5.729,5.732,5.734,5.7365,5.7328,5.734,5.7363,5.74,5.7408,5.7431,5.7471,5.75,5.7489,5.7514,5.7541,5.7525,5.7549,5.7547,5.7547,5.7412,5.7396,5.7562,5.7562,5.7562,5.7562,5.7562,5.7562,5.7381,5.7442,5.743,5.7493,5.7492,5.7532,5.7543,5.7554,5.756,5.7607,5.7631,5.7623,5.7623,5.7648,5.7673,5.7669,5.7681,5.7712,5.7701,5.7575,5.7557,5.7539,5.7524,5.7714,5.7715,5.7834,5.7835,5.7836]}]]